Location: Anumalkud?ru
(16.4847°N, 80.6636°E)
Time: 10:49:57
(UTC+00:00)

Cosmos 1844 - Pass Details

Date: 11 April 2026
Orbit: 820 x 868 km, 70.9° (Epoch: 20 May)

Event Time Altitude Azimuth Distance (km) Brightness Sun altitude
Rises 14:11:03 0° 348° (NNW) 3,441 7.3 -19.3°
Reaches altitude 10° 14:13:32 10° 351° (N) 2,505 6.5 -19.9°
Maximum altitude 14:19:15 65° 73° (ENE) 950 3.7 -21.2°
Enters shadow 14:21:21 39° 139° (SE) 1,275 4.2 -21.7°
